CW7283 Weather Reports


time (UTC)temp
C
wind
direction
speed
KPH
gust
KPH
rain 1hr
cm
rain 24hr
cm
rain mn
cm
humidity
%
barometer
mb
20260906004910 25 290 0.0 0.0 0.00 0.00 0.00 39 1015.3
20260906003345 26 290 0.0 0.0 0.00 0.00 0.00 36 1015.3
20260906001900 26 286 0.0 0.0 0.00 0.00 0.00 35 1015.3
20260906000333 26 325 0.0 0.0 0.00 0.00 0.00 35 1015.3
20260905234829 26 338 0.0 3.2 0.00 0.00 0.00 35 1015.3
20260905233337 26 275 0.0 1.6 0.00 0.00 0.00 35 1015.4
20260905231846 28 309 0.0 3.2 0.00 0.00 0.00 33 1015.3
20260905230330 28 153 0.0 3.2 0.00 0.00 0.00 32 1015.4
20260905224823 28 26 0.0 1.6 0.00 0.00 0.00 33 1015.4
20260905223347 28 198 0.0 3.2 0.00 0.00 0.00 32 1015.6
20260905221845 28 117 0.0 3.2 0.00 0.00 0.00 33 1015.8
20260905220338 27 252 0.0 0.0 0.00 0.00 0.00 33 1015.9
20260905214828 27 185 0.0 3.2 0.00 0.00 0.00 34 1015.9
20260905213341 27 128 0.0 3.2 0.00 0.00 0.00 34 1015.9
20260905211833 26 184 0.0 3.2 0.00 0.00 0.00 34 1015.9
20260905210352 26 229 0.0 3.2 0.00 0.00 0.00 35 1016.0
20260905204915 26 312 0.0 3.2 0.00 0.00 0.00 36 1016.0
20260905203356 26 250 0.0 3.2 0.00 0.00 0.00 35 1016.1
20260905201834 25 9 0.0 3.2 0.00 0.00 0.00 37 1016.2
20260905200346 25 27 0.0 8.0 0.00 0.00 0.00 38 1016.1
20260905194859 25 5 0.0 11.3 0.00 0.00 0.00 36 1016.4
20260905193341 25 327 0.0 4.8 0.00 0.00 0.00 35 1016.5
20260905191905 24 325 1.6 6.4 0.00 0.00 0.00 37 1016.5
20260905190353 23 306 0.0 8.0 0.00 0.00 0.00 39 1016.5
20260905184838 23 190 1.6 9.7 0.00 0.00 0.00 38 1016.7
20260905183347 23 298 3.2 9.7 0.00 0.00 0.00 38 1016.9
20260905181831 23 344 0.0 4.8 0.00 0.00 0.00 38 1017.0
20260905180358 22 296 1.6 6.4 0.00 0.00 0.00 39 1016.9
20260905174837 22 289 1.6 11.3 0.00 0.00 0.00 40 1017.1
20260905173332 22 246 1.6 6.4 0.00 0.00 0.00 40 1017.1
20260905171834 22 106 1.6 6.4 0.00 0.00 0.00 41 1017.1
20260905170339 22 24 3.2 8.0 0.00 0.00 0.00 40 1017.1
20260905164839 22 335 4.8 11.3 0.00 0.00 0.00 40 1017.0
20260905163335 21 11 1.6 4.8 0.00 0.00 0.00 43 1016.8
20260905161836 20 291 1.6 6.4 0.00 0.00 0.00 43 1016.6
20260905160404 20 273 0.0 9.7 0.00 0.00 0.00 44 1016.5
20260905154845 19 15 0.0 6.4 0.00 0.00 0.00 44 1016.5
20260905153335 18 316 1.6 4.8 0.00 0.00 0.00 45 1016.6
20260905151837 18 306 1.6 4.8 0.00 0.00 0.00 45 1016.6
20260905150343 17 17 0.0 3.2 0.00 0.00 0.00 47 1016.5
20260905144902 16 234 0.0 3.2 0.00 0.00 0.00 51 1016.6
20260905143335 15 307 0.0 3.2 0.00 0.00 0.00 52 1016.8
20260905141835 14 98 0.0 1.6 0.00 0.00 0.00 53 1016.9
20260905140404 13 258 0.0 0.0 0.00 0.00 0.00 54 1016.9
20260905134837 13 86 0.0 1.6 0.00 0.00 0.00 54 1016.8
20260905133331 13 297 0.0 1.6 0.00 0.00 0.00 52 1016.6
20260905131904 13 271 0.0 6.4 0.00 0.00 0.00 52 1016.5
20260905130328 13 308 0.0 3.2 0.00 0.00 0.00 51 1016.4
20260905124824 13 327 0.0 4.8 0.00 0.00 0.00 50 1016.1
20260905123344 13 9 0.0 3.2 0.00 0.00 0.00 49 1015.9
20260905121851 13 279 1.6 4.8 0.00 0.00 0.00 49 1015.8
20260905120332 13 157 0.0 3.2 0.00 0.00 0.00 50 1015.7
20260905114859 13 242 0.0 3.2 0.00 0.00 0.00 51 1015.6
20260905113328 13 238 0.0 0.0 0.00 0.00 0.00 52 1015.6
20260905111824 13 296 0.0 1.6 0.00 0.00 0.00 51 1015.4
20260905110359 14 37 0.0 3.2 0.00 0.00 0.00 49 1015.2
20260905104858 15 274 0.0 9.7 0.00 0.00 0.00 49 1014.8
20260905103328 14 317 0.0 9.7 0.00 0.00 0.00 49 1014.8
20260905101842 15 42 0.0 3.2 0.00 0.00 0.00 49 1014.7
20260905100359 15 317 1.6 11.3 0.00 0.00 0.00 49 1014.5
20260905094837 15 5 0.0 3.2 0.00 0.00 0.00 48 1014.5
20260905093333 15 57 0.0 3.2 0.00 0.00 0.00 48 1014.5
20260905091830 16 54 0.0 3.2 0.00 0.00 0.00 47 1014.2
20260905090405 16 215 0.0 3.2 0.00 0.00 0.00 47 1013.9
20260905084824 16 360 1.6 6.4 0.00 0.00 0.00 46 1013.6
20260905083359 17 152 0.0 4.8 0.00 0.00 0.00 45 1013.5
20260905081850 17 322 0.0 4.8 0.00 0.00 0.00 45 1013.1
20260905080329 17 329 0.0 3.2 0.00 0.00 0.00 45 1013.1
20260905074837 17 185 0.0 3.2 0.00 0.00 0.00 44 1013.1
20260905073348 17 215 0.0 3.2 0.00 0.00 0.00 44 1013.0
20260905071854 17 329 1.6 4.8 0.00 0.00 0.00 43 1012.7
20260905070329 18 278 0.0 9.7 0.00 0.00 0.00 42 1012.5
20260905064825 17 275 0.0 12.9 0.00 0.00 0.00 41 1012.2
20260905063340 16 304 3.2 16.1 0.00 0.00 0.00 43 1012.0
20260905061850 14 309 0.0 1.6 0.00 0.00 0.00 44 1012.0
20260905060338 15 96 0.0 0.0 0.00 0.00 0.00 43 1011.2
20260905054829 16 69 0.0 0.0 0.00 0.00 0.00 44 1011.2
20260905053326 16 117 0.0 0.0 0.00 0.00 0.00 42 1011.2
20260905051901 16 115 0.0 0.0 0.00 0.00 0.00 41 1011.2
20260905050326 17 132 0.0 0.0 0.00 0.00 0.00 39 1011.1
20260905044851 17 132 0.0 1.6 0.00 0.00 0.00 38 1010.9
20260905043346 18 205 0.0 0.0 0.00 0.00 0.00 37 1010.8
20260905041851 18 229 0.0 0.0 0.00 0.00 0.00 36 1011.0
20260905040405 19 239 0.0 0.0 0.00 0.00 0.00 35 1011.1
20260905034833 20 284 0.0 0.0 0.00 0.00 0.00 34 1010.8
20260905033335 21 283 0.0 0.0 0.00 0.00 0.00 31 1010.7
20260905031835 22 315 0.0 0.0 0.00 0.00 0.00 30 1010.6
20260905030337 22 179 0.0 0.0 0.00 0.00 0.00 30 1010.2
20260905024856 22 179 0.0 0.0 0.00 0.00 0.00 33 1010.1
20260905023329 23 172 0.0 0.0 0.00 0.00 0.00 30 1010.0
20260905021832 24 150 0.0 0.0 0.00 0.00 0.00 28 1009.7
20260905020337 25 315 0.0 0.0 0.00 0.00 0.00 27 1009.4
20260905014842 26 315 0.0 0.0 0.00 0.00 0.00 28 1009.2
20260905013353 27 220 0.0 0.0 0.00 0.00 0.00 26 1008.9
20260905011846 28 220 0.0 0.0 0.00 0.00 0.00 24 1008.8
20260905010409 28 220 0.0 0.0 0.00 0.00 0.00 23 1008.5